This is the latest recevied weather packets stored in our database for station/object KC3BAN-3. If no packets are shown the sender has not sent any weather packets the latest 1 day(s).
| Time | Temp. | Humidity | Pressure | Rain* | Wind** | Luminosity | Snow |
|---|---|---|---|---|---|---|---|
| 1778037693 | 18.89° C | 81% | 1017.5 hPa | 0 mm | 2.24 m/s, 231° | - | - |
| 1778037393 | 19.44° C | 81% | 1017.4 hPa | 0 mm | 1.79 m/s, 223° | - | - |
| 1778037093 | 19.44° C | 81% | 1017.4 hPa | 0 mm | 2.24 m/s, 227° | - | - |
| 1778036794 | 19.44° C | 80% | 1017.4 hPa | 0 mm | 2.24 m/s, 123° | - | - |
| 1778036493 | 19.44° C | 80% | 1017.4 hPa | 0 mm | 2.24 m/s, 187° | - | - |
| 1778036194 | 19.44° C | 80% | 1017.5 hPa | 0 mm | 2.24 m/s, 200° | - | - |
| 1778036023 | 19.44° C | 80% | 1017.3 hPa | 0 mm | 2.24 m/s, 205° | - | - |
| 1778035721 | 19.44° C | 80% | 1017.3 hPa | 0 mm | 2.24 m/s, 195° | - | - |
| 1778035434 | 19.44° C | 80% | 1017.3 hPa | 0 mm | 2.68 m/s, 174° | - | - |
| 1778034997 | 19.44° C | 80% | 1017.3 hPa | 0 mm | 2.68 m/s, 172° | - | - |
| 1778034690 | 19.44° C | 80% | 1017.3 hPa | 0 mm | 2.68 m/s, 189° | - | - |
| 1778034385 | 19.44° C | 79% | 1017.4 hPa | 0 mm | 3.13 m/s, 259° | - | - |
| 1778034082 | 19.44° C | 79% | 1017.3 hPa | 0 mm | 3.13 m/s, 221° | - | - |
| 1778033898 | 19.44° C | 79% | 1017.4 hPa | 0 mm | 2.68 m/s, 205° | - | - |
| 1778033470 | 19.44° C | 80% | 1017.5 hPa | 0 mm | 2.68 m/s, 154° | - | - |
| 1778033174 | 19.44° C | 79% | 1017.5 hPa | 0 mm | 2.68 m/s, 207° | - | - |
| 1778032873 | 19.44° C | 79% | 1017.5 hPa | 0 mm | 2.68 m/s, 169° | - | - |
| 1778032571 | 19.44° C | 79% | 1017.5 hPa | 0 mm | 2.68 m/s, 194° | - | - |
| 1778032271 | 19.44° C | 79% | 1017.5 hPa | 0 mm | 2.24 m/s, 178° | - | - |
| 1778031968 | 20° C | 79% | 1017.6 hPa | 0 mm | 2.24 m/s, 164° | - | - |
| 1778031667 | 20° C | 79% | 1017.5 hPa | 0 mm | 2.24 m/s, 273° | - | - |
| 1778031367 | 20° C | 79% | 1017.6 hPa | 0 mm | 2.68 m/s, 133° | - | - |
| 1778031067 | 20° C | 79% | 1017.4 hPa | 0 mm | 2.68 m/s, 250° | - | - |
| 1778030767 | 20° C | 78% | 1017.4 hPa | 0 mm | 2.24 m/s, 231° | - | - |
| 1778030467 | 20° C | 78% | 1017.4 hPa | 0 mm | 2.24 m/s, 191° | - | - |
* Rain latest hour (hover to see other rain measurements)
** Current wind speed in m/s (hover to see current wind gust speed)